SCP
1 1 2 2 2 2 2 1 1 2 2 2 2 2 2 2 1 1 0 0 0 1 1 1 2 2 2 2 2 1 0 0 0 0 0 0 0 0 0 0 0 0 0
1 1 1 1 1 2 2 1 1 2 2 2 2 1 2 2 1 1 0 0 0 1 1 1 1 2 2 3 2 1 1 0 0 0 0 0 0 0 0 0 0 0 0
1 1 1 1 1 2 2 2 2 2 2 2 2 1 1 1 1 1 0 0 0 1 1 1 1 1 2 2 2 2 1 0 0 0 0 0 0 0 0 0 0 0 0
1 1 1 1 1 1 2 2 2 2 2 2 2 2 1 1 1 1 0 0 0 0 1 1 1 1 2 2 2 2 1 1 0 0 0 0 0 0 0 0 0 0 0
1 1 1 1 1 1 1 2 2 2 2 2 3 2 1 1 1 1 1 0 0 0 0 0 1 1 1 2 2 2 2 1 0 0 0 0 0 0 0 0 0 0 0
1 1 1 0 0 1 1 2 2 2 2 3 3 2 1 1 1 1 1 1 0 0 0 0 0 0 1 1 2 3 2 1 1 0 0 0 0 0 0 0 0 0 0
1 1 0 0 0 0 1 1 2 2 2 3 3 2 1 0 0 1 1 1 1 0 0 0 0 0 0 1 1 2 2 2 1 1 1 0 0 0 0 0 0 0 0
1 1 0 0 0 0 0 1 1 2 2 3 3 2 0 0 0 0 1 1 1 0 0 0 0 0 0 1 1 2 2 2 2 1 1 1 1 0 0 0 0 0 0
1 1 1 0 0 0 0 1 1 1 2 3 2 1 0 0 0 0 0 1 0 0 0 0 0 0 0 0 1 1 1 2 2 2 1 1 1 1 0 0 0 0 0
1 1 1 0 0 0 0 1 1 1 2 2 2 1 0 0 0 0 0 0 0 0 0 0 0 0 0 1 1 1 1 1 2 2 1 1 1 1 1 1 0 0 0
1 1 1 0 0 0 0 0 1 1 1 2 2 1 0 0 0 0 0 0 0 0 0 0 0 0 0 1 1 1 0 1 1 2 1 1 1 1 1 1 1 0 0
1 1 1 0 0 0 0 0 1 1 1 1 1 1 0 0 0 0 0 0 0 0 0 0 0 0 1 1 1 1 0 0 1 1 1 1 1 1 1 1 1 1 0
0 1 0 0 0 0 0 1 1 1 1 1 1 1 0 0 0 0 0 0 0 0 0 0 0 0 0 1 1 0 0 0 0 0 0 0 0 0 0 1 1 1 1
0 0 0 0 0 0 0 1 1 1 1 1 1 1 0 0 0 0 0 0 0 0 0 0 0 0 0 0 0 0 0 0 0 0 0 0 0 0 0 0 0 0 1
0 0 0 0 0 0 0 1 1 1 0 1 1 1 0 0 0 0 0 0 0 0 0 0 0 0 0 0 0 0 0 0 0 0 0 0 0 0 0 0 0 0 0
0 0 0 0 0 0 1 1 1 0 0 1 1 1 0 0 0 0 0 0 1 0 0 0 0 0 0 0 0 0 0 0 0 0 0 0 0 0 0 0 0 0 0
0 0 0 0 0 0 0 1 1 0 0 1 1 1 0 0 0 0 0 0 0 0 0 0 0 0 0 0 0 0 0 0 0 0 0 0 0 0 0 0 0 0 0
0 0 0 0 0 0 0 1 1 0 0 0 1 1 0 0 0 0 0 0 0 0 0 0 0 0 0 0 0 0 0 0 0 0 0 0 0 0 0 0 0 0 0
0 0 0 0 0 0 0 1 1 0 0 0 1 1 0 0 0 0 0 0 0 0 0 0 0 0 0 0 0 0 0 0 0 0 0 0 0 0 0 0 0 0 0
0 0 0 0 0 0 0 1 1 1 0 0 1 1 0 0 0 0 0 0 0 0 0 0 0 0 0 0 0 0 0 0 0 0 0 0 0 0 0 0 0 0 0
0 0 0 0 0 0 0 0 1 0 0 1 1 0 0 0 0 0 0 0 0 0 0 0 0 0 0 0 0 0 0 0 0 0 0 0 0 0 0 0 0 0 0
0 0 0 0 0 0 0 0 0 0 0 1 1 0 0 0 0 0 0 0 0 0 0 0 0 0 0 0 0 0 0 0 0 0 0 0 0 0 0 0 0 0 0
0 0 0 0 0 0 0 0 0 0 0 0 0 0 0 0 0 0 0 0 0 0 0 0 0 0 0 0 0 0 0 0 0 0 0 0 0 0 0 0 0 0 0
0 0 0 0 0 0 0 0 0 0 0 0 0 0 0 0 0 0 0 0 0 0 0 0 0 0 0 0 0 0 0 0 0 0 0 0 0 0 0 0 0 0 0
0 0 0 0 0 0 0 0 0 0 0 0 0 0 0 0 0 0 0 0 0 0 0 0 0 0 0 0 0 0 0 0 0 0 0 0 0 0 0 0 0 0 0
0 0 0 0 0 0 0 0 0 0 0 0 0 0 0 0 0 0 0 0 0 0 0 0 0 0 0 0 0 0 0 0 0 0 0 0 0 0 0 0 0 0 0
Wind_Speed
2 2 2 2 2 2 2 2 2 3 3 4 4 5 6 6 5 5 4 11 14 15 16 16 16 15 15 14 13 13 12 12 11 11 10 9 8 8 8 7 6 6 5
3 3 2 2 2 2 2 3 3 3 3 3 4 5 6 6 6 6 5 7 12 15 17 17 16 16 16 15 14 14 13 13 12 12 11 11 10 9 9 9 8 7 7
3 3 3 3 3 3 3 2 3 2 2 3 4 5 5 6 6 6 6 5 6 11 15 17 17 17 17 16 15 15 14 14 14 13 12 12 12 11 11 10 10 9 8
4 4 3 3 3 3 2 2 2 2 3 3 3 4 4 5 7 7 6 6 5 6 10 14 15 16 17 16 16 16 15 15 15 14 14 13 13 13 12 12 11 10 10
4 3 3 3 4 3 3 3 2 3 3 3 4 4 4 5 6 6 7 7 7 6 6 10 13 14 16 17 17 16 16 16 15 15 15 15 14 14 13 13 12 12 11
4 3 3 4 4 3 3 3 3 3 3 3 3 4 4 5 5 6 7 6 6 7 7 7 7 9 14 16 17 17 17 16 16 16 15 15 15 15 15 14 14 13 13
4 4 3 4 4 4 5 5 3 3 3 1 1 2 3 4 5 5 5 6 7 7 7 7 6 6 6 14 16 18 18 18 17 17 16 16 16 16 15 15 15 14 14
5 4 4 4 4 4 4 5 4 3 3 2 2 1 2 3 3 5 5 6 7 6 7 8 8 8 6 5 9 16 18 19 18 18 17 17 16 16 16 16 16 15 15
5 5 5 5 4 5 5 5 6 5 4 3 3 3 2 4 3 3 5 6 6 6 6 7 9 9 9 7 7 12 17 19 19 19 18 18 17 17 17 16 15 15 15
5 5 5 5 5 4 5 6 6 5 5 4 3 3 3 3 3 3 3 4 6 7 7 7 8 9 9 8 9 12 15 18 20 20 19 19 18 18 17 16 16 16 16
5 5 5 5 5 5 6 6 6 6 5 6 4 3 3 3 3 3 5 4 4 5 6 7 6 7 8 8 8 11 15 18 20 20 20 19 19 19 18 17 16 16 16
4 5 5 5 6 5 6 6 6 7 6 6 5 5 4 4 4 4 5 5 5 5 5 6 6 6 7 8 10 14 16 18 19 19 18 18 18 18 18 17 16 16 16
4 5 5 6 6 6 6 6 6 6 7 7 7 6 5 5 4 4 4 5 5 4 4 5 6 6 6 6 8 13 15 17 18 17 17 16 16 16 16 16 16 16 16
5 6 6 6 7 7 7 6 6 6 6 7 8 7 5 5 5 4 4 4 5 5 5 6 4 6 6 6 9 12 10 16 17 17 16 16 15 15 15 15 15 15 15
5 6 6 7 7 7 7 7 6 7 7 7 7 7 7 5 5 5 5 5 5 7 8 6 4 5 5 5 8 8 8 13 16 16 15 15 15 15 15 14 14 14 13
5 5 6 7 7 7 8 7 6 7 8 7 6 7 7 5 5 5 5 5 5 6 8 5 5 4 5 6 9 8 9 13 15 16 15 15 15 14 14 14 14 13 13
6 6 6 7 7 7 8 8 8 8 8 8 7 8 9 7 6 5 5 5 5 5 8 6 4 4 5 6 5 5 6 7 7 13 15 14 14 14 14 14 13 13 13
5 6 6 7 7 7 7 8 8 8 8 9 9 8 9 6 7 6 5 6 6 6 6 8 5 4 6 6 6 6 5 5 5 10 12 13 13 13 13 13 13 13 13
5 6 7 7 7 7 7 8 8 8 8 9 9 9 9 8 8 6 7 7 6 6 5 6 6 4 4 4 4 4 5 4 4 6 9 11 12 12 12 12 12 12 12
6 7 7 7 7 7 7 7 7 8 8 8 8 8 9 9 10 8 7 8 6 6 5 5 5 4 4 4 4 4 4 4 4 4 6 7 9 10 11 12 12 12 12
6 6 6 6 6 6 6 7 7 8 8 7 7 8 9 10 12 10 8 7 7 6 6 6 5 4 4 4 5 4 5 3 3 3 3 3 3 4 5 9 10 11 12
4 5 5 5 6 6 9 11 9 7 7 8 8 8 8 9 11 13 14 13 11 9 8 7 6 7 7 5 4 4 4 3 4 3 3 3 2 4 4 4 8 11 11
3 4 5 5 6 7 11 11 11 7 7 7 8 8 7 8 10 8 11 13 13 15 14 10 9 9 7 7 6 6 6 5 5 3 2 3 2 4 3 5 9 11 11
3 4 5 5 6 8 11 11 11 7 6 8 8 9 9 9 9 9 8 8 9 9 11 9 9 9 8 7 7 7 6 4 2 2 3 3 3 3 3 4 9 11 11
5 4 5 5 6 8 11 11 11 5 6 7 8 8 9 9 12 12 9 8 8 7 8 10 11 9 10 10 7 4 4 4 3 3 3 3 2 2 3 3 5 8 9
5 5 5 5 5 6 9 11 11 5 5 6 6 7 11 11 12 11 8 8 9 7 5 5 6 7 7 8 10 8 7 6 4 3 4 3 2 1 2 2 2 2 4
Wind_Direction
192 196 195 192 195 191 193 202 212 220 214 213 215 212 212 213 211 210 212 208 210 212 214 211 208 206 205 206 205 205 206 206 207 209 207 208 210 212 213 217 220 227 230
187 191 196 195 199 200 201 204 211 216 219 212 221 222 218 216 216 214 215 212 214 215 218 217 215 214 211 210 211 211 212 213 213 214 213 214 216 219 221 223 226 231 232
189 190 196 199 204 203 204 209 216 214 224 218 223 227 223 219 216 215 214 214 217 218 220 222 221 220 218 215 215 216 217 218 218 219 219 220 221 223 225 227 229 232 234
194 192 198 205 205 196 197 205 210 220 229 226 226 228 228 226 220 218 215 214 214 219 221 223 225 225 222 220 220 220 222 222 221 223 224 224 225 227 228 230 231 233 234
198 196 206 210 199 195 201 212 213 213 229 240 241 236 229 229 226 221 218 216 213 214 216 221 224 227 226 225 224 224 224 225 225 227 227 226 227 229 230 231 233 234 236
202 199 215 216 200 197 204 210 214 220 220 229 253 253 242 235 228 220 218 218 216 216 215 217 219 225 227 229 228 227 227 227 228 230 230 229 230 231 232 233 234 236 238
209 201 216 219 207 203 204 206 204 216 225 212 242 284 278 247 235 228 222 218 219 218 214 215 217 220 226 228 230 231 231 230 231 231 231 232 234 235 235 236 237 237 239
215 214 206 215 219 212 208 204 196 202 216 193 184 241 280 286 255 242 228 220 221 218 220 219 216 218 223 222 228 230 232 234 235 233 232 233 234 236 237 239 239 240 241
220 220 213 211 220 215 214 211 201 200 217 220 193 188 207 237 282 260 238 229 224 222 224 222 220 220 221 220 224 227 229 234 237 237 236 235 235 237 239 240 241 242 242
226 224 219 215 219 223 222 217 212 205 203 222 227 222 228 217 226 269 264 239 233 231 227 228 227 224 219 218 222 223 225 232 237 239 240 239 238 238 240 240 242 243 243
232 228 225 223 221 224 227 221 213 209 208 214 218 220 240 246 232 236 263 259 253 240 233 230 228 227 223 219 219 223 224 229 235 239 241 241 241 241 241 241 242 243 243
240 233 229 229 228 226 228 226 219 215 217 220 223 218 217 220 222 228 250 254 255 252 240 234 231 229 226 223 224 222 223 228 231 234 238 240 242 244 243 243 242 243 244
244 238 233 230 230 232 231 225 222 222 220 218 222 227 226 233 234 237 248 260 264 267 251 242 229 227 228 223 225 222 225 229 230 232 235 237 238 242 244 244 243 241 243
243 243 236 233 233 233 238 227 225 226 227 223 230 229 233 231 230 235 237 247 267 267 252 246 232 222 225 223 226 221 228 229 231 232 233 234 235 237 240 242 242 242 242
245 246 243 240 236 234 234 227 230 228 226 228 229 229 234 233 226 232 233 230 243 263 259 245 236 225 224 227 226 220 227 231 231 232 232 232 233 234 236 237 238 240 239
242 246 249 245 239 236 235 229 232 232 228 230 228 230 236 235 230 230 231 233 234 249 263 248 238 231 225 234 232 226 227 232 231 232 232 231 232 234 234 233 233 234 236
241 242 246 244 243 241 239 234 234 231 231 233 234 231 235 233 233 233 234 234 235 238 259 268 250 239 227 235 236 229 231 229 231 232 232 232 232 232 232 231 232 233 235
243 244 248 246 246 247 242 238 239 235 232 234 233 232 236 236 235 234 233 236 237 235 243 262 262 243 233 230 229 229 236 235 233 233 231 230 230 230 231 232 231 231 233
246 251 250 247 247 245 244 242 238 236 237 237 234 232 234 231 237 238 235 238 240 244 238 248 257 251 242 230 230 236 235 239 241 237 231 230 229 230 232 232 231 231 231
245 251 250 247 248 248 246 246 245 240 238 240 239 237 236 231 233 234 237 238 240 241 240 243 253 253 242 230 214 223 236 232 240 241 238 235 231 232 233 233 233 231 230
249 251 251 253 252 250 247 246 246 242 237 243 244 241 241 242 241 239 240 235 233 237 237 239 244 248 243 224 220 213 230 235 249 226 225 232 227 231 231 235 234 231 231
263 262 254 255 259 264 265 264 260 246 238 239 243 244 247 246 245 248 250 247 239 234 234 235 236 235 237 233 226 214 217 220 246 209 201 245 220 237 239 235 234 232 232
282 276 269 264 263 264 269 269 267 259 244 241 242 244 252 254 254 247 250 251 246 241 235 233 235 235 231 222 216 220 218 219 234 207 188 248 230 244 243 240 234 232 232
298 286 284 276 273 275 278 273 272 260 250 245 243 243 246 250 250 249 247 249 248 242 235 232 234 234 232 219 215 223 217 218 233 212 186 230 235 246 258 246 233 228 231
305 292 286 282 281 283 283 281 278 256 251 251 249 248 246 248 253 253 247 249 254 249 241 238 238 238 233 226 218 206 198 193 235 236 199 203 218 249 262 257 239 228 230
299 297 293 285 280 282 289 292 288 267 258 259 257 251 251 255 261 260 250 242 248 246 237 242 243 239 229 220 218 214 203 204 214 229 198 186 198 192 265 255 248 237 237